Location: Bottens
(46.6171°N, 6.6605°E)
Time: 08:24:00
(UTC+00:00)

ATLAS 5 CENTAUR R/B - Pass Details

Date: 01 November 2021
Orbit: 497 x 1159 km, 63.4° (Epoch: 25 November)

Event Time Altitude Azimuth Distance (km) Brightness Sun altitude
Rises 16:59:00 0° 284° (WNW) 2,724 6.1 -7.6°
Reaches altitude 10° 17:02:08 10° 311° (NW) 1,928 4.6 -8.1°
Maximum altitude 17:04:24 14° 343° (NNW) 1,768 4.0 -8.5°
Drops below altitude 10° 17:06:50 10° 14° (NNE) 2,107 4.0 -8.9°
Enters shadow 17:09:35 - 35° (NE) 2,872 4.5 -9.4°
